Weather in Baturyn

Ukraine / Chernihiv Region     51°20′34″N   32°53′02″E
temp.,
°C
wind,
m/s
gust,
m/s
humid.,
%
clouds,
%
prec.,
mm/h
press.,
hPa
HPBL,
m
24 july, sat
sat2400:00+19wnw3561100 0.0 1013106
03:00+19wnw3662100 0.0 1014139
06:00+18wnw376931 0.0 1014185
09:00+21nw35647 0.0 1014408
12:00+25wnw45495 0.0 10141553
15:00+25nnw455326 0.0 10141150
18:00+23nw356391 0.0 1015272
21:00+19nw22835 1.9 101620
25 july, sun
sun2500:00+17ene118695 1.4 101711
03:00+17e2290100 2.3 101834
06:00+16ese229016 0.1 101925
09:00+20e237893 0.1 1019238
12:00+21e337391 0.4 1020279
15:00+25e335228 0.6 10201330
18:00+25s235380 0.0 1019797
21:00+19w118597 2.1 102112
26 july, mon
mon2600:00+18se118387 0.1 102111
03:00+17sse22885 0.1 102213
06:00+17sse359223 0.6 1023103
09:00+20se457499 0.8 1023301
12:00+25sse44505 0.0 10231143
15:00+28sse344390 0.0 10222521
18:00+27sse24499 0.0 10211265
21:00+20se33645 0.0 102238
27 july, tue
tue2700:00+19ese36596 0.0 102391
03:00+17ese35650 0.0 102388
06:00+17se36664 0.0 102395
09:00+23se45534 0.0 1023376
12:00+27se34415 0.0 10221189
15:00+28ese33377 0.0 10212149
18:00+28se33440 0.0 10211916
21:00+22ese33584 0.0 102033
28 july, wed
wed2800:00+19ese34655 0.0 102165
03:00+18se48657 0.0 1020122
06:00+17sse4106063 0.0 1019172
09:00+23sse6105190 0.0 1017408
12:00+25ssw5853100 0.0 1017831
15:00+20e4784100 0.9 1016140
18:00+20ese61284100 0.4 1013243
21:00+20se614745 0.4 1011254